sat.trackr.live / text

‹ back to catalog

UNKNOWN

NORAD 89213

UNKNOWN UNKNOWN UNKNOWN

§ Identity

Operator
Country
Launch date
Launch site
Launch vehicle
Mass (kg)
RCS (m²)

External: N2YO · Heavens-Above

§ Orbital elements

Epoch: 2026-09-18T01:45:53.360928Z

Period
103.46 min
Inclination
98.7431°
Eccentricity
0.0228339
Mean motion
13.91845457 rev/d
Perigee alt
755.5 km
Apogee alt
1,088.9 km
Semi-major
7,300.3 km
B*
2.1795e-4
RAAN
124.1131°
Arg perigee
79.0957°
Mean anomaly
283.5806°
Rev number
49,152

§ Raw data

UNKNOWN1 89213U          26261.07353427  .00000304  00000+0  21795-3 0  99942 89213  98.7431 124.1131 0228339  79.0957 283.5806 13.91845457491524

JSON: /api/v1/satellites/89213 · /tle

For live sub-satellite position, see the globe view (requires WebGL).

§ Visibility from observer

Set your observer location to see the next 7 days of passes ≥ 10°. The values pass through the URL so the page stays shareable.

No JS? Fill the form by hand. The geolocation button needs JavaScript.